Location: Observatoire
(46.1952°N, 5.3391°E)
Time: 07:06:11
(UTC+01:00)

Tiros 1 despin weight - Pass Details

Date: 19 February 2026
Orbit: 556 x 593 km, 48.2° (Epoch: 13 March)

Event Time Altitude Azimuth Distance (km) Brightness Sun altitude
Rises 14:48:56 0° 219° (SW) 2,738 ? 27.0°
Reaches altitude 10° 14:51:21 10° 209° (SSW) 1,840 ? 26.8°
Maximum altitude 14:55:06 32° 146° (SE) 966 ? 26.4°
Drops below altitude 10° 14:58:50 10° 83° (E) 1,837 ? 26.0°
Sets 15:01:14 0° 73° (ENE) 2,733 ? 25.8°
